Location: Dittelbrunn
(50.0738°N, 10.2196°E)
Time: 02:19:35
(UTC+00:00)

ATLAS 2AS CENTAUR R/B - Visible Passes

Search period start: 23 January 2021 00:00
Search period end: 02 February 2021 00:00
Orbit: 943 x 1268 km, 63.7° (Epoch: 21 January)

Date Brightness Start Highest point End Pass type
(mag) Time Alt. Az. Time Alt. Az. Time Alt. Az.
23 Jan 4.1 17:50:39 10° W 17:57:43 34° NNW 18:02:51 17° NE visible
23 Jan 4.1 19:44:11 10° NW 19:50:17 30° N 19:50:17 30° N visible
23 Jan 5.1 21:36:06 10° NW 21:37:43 17° NW 21:37:43 17° NW visible
24 Jan 3.9 17:04:59 10° W 17:12:21 39° NNW 17:19:26 10° NE visible
24 Jan 4.1 18:58:45 10° WNW 19:05:24 29° N 19:06:55 27° NNE visible
24 Jan 4.6 20:51:06 10° NW 20:54:21 25° NNW 20:54:21 25° NNW visible
25 Jan 4.2 18:13:11 10° WNW 18:19:54 30° N 18:23:33 21° NE visible
25 Jan 4.2 20:06:01 10° NW 20:10:59 31° N 20:10:59 31° N visible
25 Jan 5.3 21:57:27 10° NW 21:58:25 14° NW 21:58:25 14° NW visible
26 Jan 4.1 17:27:30 10° WNW 17:34:25 32° NNW 17:40:11 13° NE visible
26 Jan 3.9 19:20:49 10° NW 19:27:37 32° NNE 19:27:37 32° NNE visible
26 Jan 4.8 21:12:31 10° NW 21:15:03 22° NW 21:15:03 22° NW visible
27 Jan 4.0 16:41:49 10° W 16:48:59 36° NNW 16:55:55 10° NE visible
27 Jan 4.0 18:35:29 10° NW 18:42:09 30° N 18:44:15 26° NNE visible
27 Jan 4.2 20:27:33 10° NW 20:31:42 31° NNW 20:31:42 31° NNW visible
27 Jan 5.4 22:18:52 10° NW 22:19:08 11° NW 22:19:08 11° NW visible
28 Jan 4.1 17:49:58 10° WNW 17:56:39 29° N 18:00:55 18° NE visible
28 Jan 3.8 19:42:32 10° NW 19:48:21 37° N 19:48:21 37° N visible
28 Jan 5.0 21:33:53 10° NW 21:35:47 19° NW 21:35:47 19° NW visible
29 Jan 4.1 17:04:21 10° WNW 17:11:08 30° N 17:17:35 10° NE visible
29 Jan 3.7 18:57:24 10° NW 19:04:19 34° NNE 19:05:01 34° NNE visible
29 Jan 4.4 20:48:56 10° NW 20:52:27 30° NW 20:52:27 30° NW visible
30 Jan 3.9 18:12:09 10° NW 18:18:53 31° N 18:21:41 24° NE visible
30 Jan 3.7 20:03:59 10° NW 20:09:09 41° NNW 20:09:09 41° NNW visible
30 Jan 5.2 21:55:22 10° NW 21:56:34 15° NW 21:56:34 15° NW visible
31 Jan 4.1 17:26:44 10° NW 17:33:23 29° N 17:38:24 15° NE visible
31 Jan 3.4 19:18:59 10° NW 19:25:50 44° NNE 19:25:50 44° NNE visible
31 Jan 4.6 21:10:18 10° NW 21:13:17 26° NW 21:13:17 26° NW visible
01 Feb 4.1 16:41:11 10° WNW 16:47:52 29° N 16:54:16 10° NE visible
01 Feb 3.5 18:33:56 10° NW 18:40:59 37° NNE 18:42:34 34° NE visible
01 Feb 3.8 20:25:20 10° NW 20:30:01 41° NW 20:30:01 41° NW visible
01 Feb 5.4 22:17:16 10° WNW 22:17:27 11° WNW 22:17:27 11° WNW visible
